When you browse on this site, cookies collect data to enhance your experience and personalize the content and advertising you see.
Visit our Privacy Policy to learn more. By continuing to use the site, you agree to this use of cookies and data.
  • In Latvia
  • List of Countries
  • For 7 days
  • Water Temperature
  • Weather Map
  • Weather Widgets
  • user-avatar
    Login

    Hourly Weather Reble

    Today, 6 June, Saturday

    Time Temperature Precipitation Wind Pressure Humidity
    00:00 +11°C° 0 mm 3 mps 738 mmHg 85%
    01:00 +11°C° 0 mm 4 mps 738 mmHg 85%
    02:00 +12°C° 0 mm 4 mps 738 mmHg 83%
    03:00 +12°C° 0.1 mm 4 mps 737 mmHg 86%
    04:00 +12°C° 0.1 mm 4 mps 737 mmHg 88%
    05:00 +13°C° 0.1 mm 4 mps 737 mmHg 91%
    06:00 +14°C° 0.1 mm 4 mps 737 mmHg 90%
    07:00 +15°C° 0.1 mm 4 mps 737 mmHg 89%
    08:00 +16°C° 0.1 mm 5 mps 737 mmHg 88%
    09:00 +17°C° 0.2 mm 4 mps 737 mmHg 88%
    10:00 +17°C° 0.2 mm 4 mps 738 mmHg 88%
    11:00 +18°C° 0.2 mm 4 mps 738 mmHg 88%
    12:00 +19°C° 0.4 mm 4 mps 738 mmHg 86%
    13:00 +19°C° 0.4 mm 4 mps 738 mmHg 85%
    14:00 +20°C° 0.4 mm 4 mps 739 mmHg 83%
    15:00 +21°C° 0.3 mm 4 mps 739 mmHg 75%
    16:00 +22°C° 0.3 mm 4 mps 739 mmHg 68%
    17:00 +22°C° 0.3 mm 4 mps 739 mmHg 61%
    18:00 +21°C° 0.1 mm 3 mps 740 mmHg 68%
    19:00 +19°C° 0.1 mm 2 mps 740 mmHg 76%
    20:00 +17°C° 0.1 mm 2 mps 741 mmHg 84%
    21:00 +16°C° 0 mm 1 mps 742 mmHg 87%
    22:00 +15°C° 0 mm 1 mps 742 mmHg 90%
    23:00 +13°C° 0 mm 1 mps 743 mmHg 94%

    Tomorrow, 7 June, Sunday

    Time Temperature Precipitation Wind Pressure Humidity
    00:00 +13°C° 0 mm 1 mps 743 mmHg 93%
    01:00 +13°C° 0 mm 1 mps 744 mmHg 93%
    02:00 +12°C° 0 mm 1 mps 744 mmHg 93%
    03:00 +13°C° 0 mm 1 mps 744 mmHg 91%
    04:00 +13°C° 0 mm 1 mps 745 mmHg 89%
    05:00 +14°C° 0 mm 2 mps 745 mmHg 88%
    06:00 +16°C° 0 mm 2 mps 745 mmHg 80%
    07:00 +18°C° 0 mm 2 mps 745 mmHg 72%
    08:00 +20°C° 0 mm 2 mps 746 mmHg 64%
    09:00 +21°C° 0 mm 2 mps 746 mmHg 60%
    10:00 +24°C° 0 mm 2 mps 746 mmHg 55%
    11:00 +25°C° 0 mm 2 mps 747 mmHg 51%
    12:00 +26°C° 0 mm 3 mps 746 mmHg 49%
    13:00 +26°C° 0 mm 3 mps 746 mmHg 48%
    14:00 +27°C° 0 mm 3 mps 746 mmHg 47%
    15:00 +26°C° 0 mm 3 mps 746 mmHg 49%
    16:00 +26°C° 0 mm 3 mps 746 mmHg 52%
    17:00 +26°C° 0 mm 3 mps 746 mmHg 54%
    18:00 +24°C° 0 mm 3 mps 746 mmHg 62%
    19:00 +23°C° 0 mm 2 mps 745 mmHg 70%
    20:00 +20°C° 0 mm 2 mps 745 mmHg 78%
    21:00 +19°C° 0 mm 2 mps 745 mmHg 82%
    22:00 +18°C° 0 mm 2 mps 745 mmHg 87%
    23:00 +17°C° 0 mm 2 mps 745 mmHg 92%

    Day after tomorrow, 8 June, Monday

    Time Temperature Precipitation Wind Pressure Humidity
    00:00 +17°C° 0 mm 2 mps 745 mmHg 92%
    01:00 +17°C° 0 mm 2 mps 745 mmHg 91%
    02:00 +17°C° 0 mm 2 mps 745 mmHg 91%
    03:00 +17°C° 0 mm 3 mps 745 mmHg 91%
    04:00 +18°C° 0 mm 3 mps 745 mmHg 90%
    05:00 +18°C° 0 mm 3 mps 745 mmHg 90%
    06:00 +20°C° 0 mm 3 mps 745 mmHg 84%
    07:00 +21°C° 0 mm 3 mps 745 mmHg 77%
    08:00 +24°C° 0 mm 3 mps 745 mmHg 71%
    09:00 +26°C° 0 mm 4 mps 745 mmHg 64%
    10:00 +27°C° 0 mm 4 mps 745 mmHg 56%
    11:00 +29°C° 0 mm 4 mps 745 mmHg 49%
    12:00 +29°C° 0 mm 4 mps 745 mmHg 47%
    13:00 +30°C° 0 mm 4 mps 745 mmHg 46%
    14:00 +30°C° 0 mm 4 mps 745 mmHg 45%
    15:00 +30°C° 0 mm 4 mps 745 mmHg 47%
    16:00 +29°C° 0 mm 4 mps 745 mmHg 49%
    17:00 +29°C° 0 mm 3 mps 745 mmHg 51%
    18:00 +27°C° 0 mm 3 mps 745 mmHg 61%
    19:00 +25°C° 0 mm 3 mps 745 mmHg 70%
    20:00 +23°C° 0 mm 2 mps 745 mmHg 80%
    21:00 +21°C° 0 mm 2 mps 745 mmHg 85%
    22:00 +20°C° 0 mm 2 mps 745 mmHg 90%
    23:00 +19°C° 0 mm 2 mps 746 mmHg 95%

    9 June, Tuesday

    Time Temperature Precipitation Wind Pressure Humidity
    00:00 +18°C° 0 mm 2 mps 746 mmHg 96%
    01:00 +18°C° 0 mm 2 mps 746 mmHg 96%
    02:00 +19°C° 0 mm 1 mps 746 mmHg 97%
    03:00 +19°C° 0 mm 1 mps 746 mmHg 96%
    04:00 +19°C° 0 mm 2 mps 746 mmHg 95%
    05:00 +19°C° 0 mm 2 mps 746 mmHg 94%
    06:00 +21°C° 0 mm 2 mps 746 mmHg 85%
    07:00 +24°C° 0 mm 2 mps 746 mmHg 77%
    08:00 +25°C° 0 mm 2 mps 746 mmHg 69%
    09:00 +27°C° 0 mm 2 mps 746 mmHg 64%
    10:00 +28°C° 0 mm 2 mps 746 mmHg 59%
    11:00 +29°C° 0 mm 3 mps 746 mmHg 53%
    12:00 +29°C° 0.4 mm 3 mps 746 mmHg 54%
    13:00 +29°C° 0.4 mm 3 mps 746 mmHg 54%
    14:00 +30°C° 0.4 mm 2 mps 746 mmHg 55%
    15:00 +29°C° 0.4 mm 2 mps 746 mmHg 58%
    16:00 +29°C° 0.4 mm 2 mps 746 mmHg 61%
    17:00 +28°C° 0.4 mm 2 mps 746 mmHg 64%
    18:00 +27°C° 0.6 mm 2 mps 746 mmHg 72%
    19:00 +25°C° 0.6 mm 1 mps 746 mmHg 80%
    20:00 +23°C° 0.6 mm 1 mps 746 mmHg 89%
    21:00 +22°C° 0 mm 1 mps 746 mmHg 91%
    22:00 +21°C° 0 mm 1 mps 746 mmHg 93%
    23:00 +21°C° 0 mm 1 mps 746 mmHg 95%

    10 June, Wednesday

    Time Temperature Precipitation Wind Pressure Humidity
    00:00 +20°C° 0 mm 1 mps 746 mmHg 96%
    01:00 +20°C° 0 mm 1 mps 746 mmHg 97%
    02:00 +20°C° 0 mm 1 mps 746 mmHg 97%
    03:00 +20°C° 0 mm 1 mps 746 mmHg 97%
    04:00 +19°C° 0 mm 2 mps 746 mmHg 97%
    05:00 +20°C° 0 mm 2 mps 746 mmHg 97%
    06:00 +21°C° 0.2 mm 2 mps 746 mmHg 94%
    07:00 +23°C° 0.2 mm 2 mps 746 mmHg 91%
    08:00 +24°C° 0.2 mm 2 mps 746 mmHg 88%
    09:00 +24°C° 1.9 mm 2 mps 746 mmHg 86%
    10:00 +25°C° 1.9 mm 2 mps 746 mmHg 83%
    11:00 +26°C° 1.9 mm 2 mps 746 mmHg 81%
    12:00 +26°C° 1.1 mm 2 mps 746 mmHg 78%
    13:00 +26°C° 1.1 mm 2 mps 746 mmHg 74%
    14:00 +27°C° 1.1 mm 1 mps 746 mmHg 71%
    15:00 +27°C° 0.8 mm 1 mps 746 mmHg 71%
    16:00 +27°C° 0.8 mm 2 mps 745 mmHg 72%
    17:00 +27°C° 0.8 mm 2 mps 745 mmHg 72%
    18:00 +25°C° 0.1 mm 2 mps 745 mmHg 77%
    19:00 +24°C° 0.1 mm 2 mps 745 mmHg 83%
    20:00 +23°C° 0.1 mm 2 mps 745 mmHg 88%
    21:00 +21°C° 0 mm 2 mps 745 mmHg 90%
    22:00 +21°C° 0 mm 1 mps 746 mmHg 92%
    23:00 +20°C° 0 mm 1 mps 746 mmHg 94%

    11 June, Thursday

    Time Temperature Precipitation Wind Pressure Humidity
    00:00 +20°C° 0 mm 1 mps 746 mmHg 95%
    01:00 +19°C° 0 mm 1 mps 746 mmHg 96%
    02:00 +19°C° 0 mm 1 mps 746 mmHg 97%
    03:00 +18°C° 0 mm 2 mps 746 mmHg 96%
    04:00 +18°C° 0 mm 2 mps 746 mmHg 95%
    05:00 +18°C° 0 mm 2 mps 746 mmHg 94%
    06:00 +20°C° 0 mm 2 mps 746 mmHg 88%
    07:00 +21°C° 0 mm 2 mps 746 mmHg 82%
    08:00 +24°C° 0 mm 2 mps 746 mmHg 76%
    09:00 +26°C° 0 mm 2 mps 746 mmHg 69%
    10:00 +27°C° 0 mm 2 mps 746 mmHg 63%
    11:00 +28°C° 0 mm 2 mps 746 mmHg 56%
    12:00 +29°C° 0 mm 2 mps 746 mmHg 52%
    13:00 +30°C° 0 mm 2 mps 746 mmHg 49%
    14:00 +30°C° 0 mm 2 mps 746 mmHg 45%
    15:00 +30°C° 0 mm 2 mps 746 mmHg 48%
    16:00 +30°C° 0 mm 2 mps 746 mmHg 50%
    17:00 +29°C° 0 mm 2 mps 746 mmHg 52%
    18:00 +27°C° 0.2 mm 1 mps 746 mmHg 61%
    19:00 +25°C° 0.2 mm 1 mps 746 mmHg 71%
    20:00 +21°C° 0.2 mm 0 mps 746 mmHg 80%
    21:00 +22°C° 0 mm 1 mps 746 mmHg 82%
    22:00 +21°C° 0 mm 1 mps 746 mmHg 83%
    23:00 +20°C° 0 mm 1 mps 746 mmHg 85%
    Show more